Location: M.A.R.S.Observatory
(35.4031°N, 81.5481°W)
Time: 18:18:43
(UTC-04:00)

SL-8 R/B - Visible Passes

Search period start: 20 April 2014 00:00
Search period end: 30 April 2014 00:00
Orbit: 659 x 671 km, 48.4° (Epoch: 20 April)

Date Brightness Start Highest point End Pass type
(mag) Time Alt. Az. Time Alt. Az. Time Alt. Az.
20 Apr 6.2 04:37:09 10° SSE 04:37:09 10° SSE 04:37:14 10° SSE visible
20 Apr 3.8 20:23:26 10° SW 20:28:09 60° SE 20:32:55 10° ENE visible
20 Apr 5.4 22:06:40 10° W 22:10:59 32° NNW 22:15:19 10° NE visible
20 Apr 6.4 23:51:34 10° NW 23:53:53 17° NNW 23:53:53 17° NNW visible
21 Apr 4.4 20:55:18 10° WSW 21:00:02 58° NNW 21:04:49 10° NE visible
21 Apr 6.1 22:39:48 10° WNW 22:43:25 21° NNW 22:46:44 11° NNE visible
22 Apr 6.7 00:24:08 10° NW 00:24:48 12° NNW 00:24:48 12° NNW visible
22 Apr 5.5 21:28:00 10° W 21:32:14 30° NNW 21:36:30 10° NE visible
22 Apr 6.2 23:12:53 10° NW 23:16:03 17° N 23:17:25 15° NNE visible
23 Apr 6.1 22:01:08 10° WNW 22:04:42 20° NNW 22:08:15 10° NE visible
23 Apr 6.2 23:45:22 10° NW 23:47:56 18° N 23:47:56 18° N visible
24 Apr 5.7 20:49:19 10° W 20:53:29 28° NNW 20:57:40 10° NE visible
24 Apr 6.2 22:34:10 10° NW 22:37:19 17° N 22:40:19 11° NE visible
25 Apr 6.5 00:17:15 10° NW 00:18:21 15° NNW 00:18:21 15° NNW visible
25 Apr 6.1 21:22:28 10° WNW 21:25:57 19° NNW 21:29:27 10° NE visible
25 Apr 5.9 23:06:34 10° NW 23:09:58 19° N 23:10:40 18° NNE visible
26 Apr 6.2 21:55:27 10° NW 21:58:35 17° N 22:01:44 10° NE visible
26 Apr 5.9 23:38:25 10° NW 23:40:59 22° N 23:40:59 22° N visible
27 Apr 6.1 20:43:48 10° NW 20:47:13 19° N 20:50:38 10° NE visible
27 Apr 5.9 22:27:46 10° NW 22:31:14 19° N 22:33:15 15° NE visible
28 Apr 6.3 00:10:04 10° NW 00:11:16 17° NW 00:11:16 17° NW visible
28 Apr 6.1 21:16:43 10° NW 21:19:51 17° N 21:23:00 10° NE visible
28 Apr 5.4 22:59:34 10° NW 23:03:32 27° NNE 23:03:32 27° NNE visible
29 Apr 5.8 21:48:58 10° NW 21:52:29 20° NNE 21:55:48 11° ENE visible
29 Apr 5.5 23:31:14 10° NW 23:33:49 29° NNW 23:33:49 29° NNW visible
